Beidou DW 44

operational
NORAD ID: 44204 Int'l Des: 2019-023 Owner: CNSA Country: CN Constellation: BeiDou
HEOCIRCULARGSO

About Beidou DW 44

Description loading...

Live Position

Loading 3D Globe...

Upcoming Passes

Altitude History

Altitude vs Time

uPlot chart will show altitude changes over time

Two-Line Element Set

1 44204U 19023A 25294.79687675 -.00000228 00000-0 00000+0 0 9998
2 44204 58.3620 40.1148 0026431 218.5589 176.1839 1.00260535 4823
Epoch: Oct 21, 2025 • Age: 98 hours

Current Status

Altitude 35890.7 km
Velocity 3.07 km/s
Sub-Earth Point 54.18°N, 103.36°E
Launch Date Apr 20, 2019
Age 6.5 years
Type navigation

Technical Details

Classification Payload
Mass 3060.00 kg
Dry Mass 1700.00 kg
Total Mass 3060.00 kg
Length 3.00 m
Diameter 1.70 m
Span 18.00 m
Shape Box + 2 Pan
Manufacturer CAST
Bus Type DFH-3B
Phase Status In Orbit
Owner/State CNSA/CN

Large Constellations

Loading constellations...